Flag for Bahrain Weather past 2 weeks in Riffa, Bahrain

Now
91 °F

Sunny.


Feels Like: 97 °F
Forecast: 87 / 97 °F
Wind: 12 mph from Northeast

Location: Bahrain International Airport

Current Time: Oct 1, 2014 at 5:20:04 PM

Latest Report: Oct 1, 2014 at 5:00 PM


Visibility: 10 mi

Pressure: 29.80 "Hg

Humidity: 49%

Dew point: 70 °F

Location of RiffaLocation

Historic Weather in Riffa — Graph

°F

Riffa temperature yesterday

Maximum temperature yesterday: 93 °F (at 10:00 AM)
Minimum temperature yesterday: 84 °F (at 2:00 AM)
Average temperature yesterday: 89 °F

Past Weeks' High & Low Weather Summary

 TemperatureHumidityPressure
High102 °F (Sep 17, 10:00 AM)79% (Sep 23, 5:00 AM)29.89 "Hg (Sep 23, 5:00 AM)
Low82 °F (Sep 27, 6:00 AM)16% (Sep 17, 12:00 PM)29.59 "Hg (Sep 16, 4:00 PM)
Average91 °F53%29.74 "Hg
* Reported Sep 16 4:00 PM — Oct 1 4:00 PM, Riffa, Weather by CustomWeather, © 2014

Note: Actual official high and low records may vary slightly from our data, if they occured in-between our weather recording intervals... More about our weather records

Advertising

Riffa weather history for previous 24 hours

 ConditionsComfort  
Time TempWeatherWind HumidityBarometerVisibility
4:00 PM
Oct 1
93 °FPassing clouds.12 mph39%29.80 "HgN/A
3:00 PM97 °FPassing clouds.8 mph28%29.80 "HgN/A
2:00 PM95 °FPassing clouds.9 mph26%29.80 "HgN/A
1:00 PM95 °FPassing clouds.9 mph39%29.80 "HgN/A
12:00 PM95 °FPassing clouds.9 mph39%29.83 "HgN/A
11:00 AM93 °FPassing clouds.10 mph47%29.86 "HgN/A
10:00 AM91 °FSunny.10 mph56%29.89 "Hg10 mi
9:00 AM93 °FSunny.9 mph56%29.86 "Hg10 mi
8:00 AM90 °FSunny.7 mph59%29.86 "Hg10 mi
7:00 AM90 °FPassing clouds.5 mph59%29.86 "Hg4 mi
6:00 AM84 °FPassing clouds.3 mph70%29.83 "Hg4 mi
5:00 AM84 °FClear.3 mph66%29.83 "Hg4 mi
4:00 AM86 °FClear.5 mph66%29.80 "Hg4 mi
3:00 AM86 °FClear.3 mph66%29.80 "Hg5 mi
2:00 AM86 °FClear.5 mph66%29.80 "Hg4 mi
1:00 AM86 °FClear.7 mph66%29.80 "Hg4 mi
12:00 AM88 °FClear.6 mph62%29.80 "Hg4 mi
11:00 PM
Sep 30
88 °FClear.6 mph62%29.83 "Hg4 mi
10:00 PM88 °FClear.6 mph62%29.83 "Hg4 mi
9:00 PM88 °FClear.6 mph62%29.83 "Hg4 mi
8:00 PM90 °FClear.7 mph55%29.83 "Hg4 mi
7:00 PM90 °FClear.8 mph55%29.83 "Hg4 mi
6:00 PM90 °FClear.9 mph55%29.80 "Hg5 mi
5:00 PM90 °FSunny.12 mph59%29.80 "Hg5 mi
Weather by CustomWeather, © 2014

See weather overviewHow to use our weather pages